GFSFLT2_prec_cthk_000.txt.gz
RH
23 22 21 20 17 14 9 9 12 17 21 26 28 29 29 29 30 32 31 33 35 34 35 33 33 32 32 31 30 28 27 28
21 18 14 10 10 9 10 15 19 24 29 31 31 31 31 32 32 32 35 37 40 41 42 40 38 37 37 36 34 33 31 29
13 11 10 10 12 15 19 23 27 31 33 34 33 33 33 31 34 35 36 40 43 45 46 46 44 45 43 43 41 37 34 31
14 14 13 16 20 24 27 31 34 38 40 41 42 41 41 40 39 40 41 44 48 48 47 46 47 47 46 45 44 41 40 40
17 20 22 25 28 32 35 39 42 47 46 48 49 49 46 45 44 45 45 47 50 50 50 45 44 44 46 43 42 41 41 40
26 25 29 35 37 39 41 47 49 51 53 48 47 49 51 53 51 49 51 51 53 53 50 45 44 43 44 42 41 38 36 39
39 36 36 43 50 50 55 58 60 59 60 56 53 54 57 56 55 56 60 58 56 53 48 45 44 43 40 40 38 39 37 37
50 51 45 45 53 56 65 71 71 70 71 65 63 63 65 63 62 64 64 62 58 54 48 44 44 43 40 39 38 37 36 37
50 52 52 56 62 69 85 92 87 82 82 76 76 74 70 68 69 70 68 61 57 51 45 40 38 35 33 32 33 32 31 31
55 61 74 77 88 89 91 88 88 85 81 76 79 77 74 74 72 69 61 52 47 44 41 38 36 32 30 29 30 30 28 28
61 70 82 85 89 91 91 82 82 81 83 82 80 79 76 68 64 60 57 48 41 38 37 34 30 29 30 31 33 31 28 27
70 82 91 92 89 85 78 76 75 83 86 82 76 69 65 67 65 53 43 40 40 39 36 35 34 33 34 34 33 34 32 32
81 85 87 74 71 74 71 75 84 83 75 68 64 62 59 51 44 41 42 42 41 40 41 39 37 35 35 35 37 39 39 37
74 68 67 70 69 70 72 66 62 61 60 60 58 51 44 41 42 44 45 43 43 43 41 40 40 37 37 37 35 32 29 27
52 55 56 57 56 56 58 58 59 59 56 52 47 45 46 47 47 46 46 48 48 49 44 41 39 41 37 34 32 32 28 22
58 57 55 57 59 62 63 62 58 54 52 50 50 51 52 54 53 48 47 50 49 43 38 33 33 33 31 31 34 39 40 34
56 54 56 56 56 57 55 52 51 52 52 51 52 53 51 48 45 44 40 41 38 34 34 37 37 35 34 33 33 36 43 50
58 60 58 52 52 51 53 54 55 54 52 50 51 49 46 40 37 36 35 36 38 42 41 41 36 37 37 40 37 40 39 40
60 59 57 54 54 57 57 57 56 53 52 50 48 42 35 30 29 32 37 35 42 50 45 60 58 52 46 48 52 45 43 38
66 65 63 61 58 57 56 54 51 48 43 37 33 29 27 25 28 33 37 38 50 46 58 65 64 57 58 55 55 50 47 39

GFSFLT2_prec_cthk_003.txt.gz
RH
52 39 29 29 28 21 13 11 15 20 23 27 26 28 30 31 32 31 31 33 36 35 36 36 35 36 36 35 34 33 31 30
29 28 28 22 16 13 13 20 22 26 29 31 30 31 32 32 33 36 38 39 42 40 40 40 39 38 38 37 36 37 36 33
23 19 16 14 16 20 24 26 29 32 35 35 36 37 37 41 43 42 43 43 44 43 45 46 43 41 39 39 38 36 34 36
19 19 19 22 27 29 30 31 35 39 41 40 40 43 46 49 48 46 47 48 46 46 48 48 44 41 40 38 36 35 33 32
20 21 25 29 31 34 38 38 45 46 47 46 45 48 53 54 52 51 53 49 50 52 51 48 43 38 38 39 37 33 31 32
27 30 32 36 40 44 44 47 53 57 53 54 58 61 60 61 60 57 52 53 56 57 55 52 46 40 37 36 34 30 30 31
36 37 44 45 48 51 54 59 64 75 78 74 71 73 69 68 69 62 59 62 65 60 54 50 44 39 38 35 31 28 26 25
45 42 44 48 49 49 54 63 72 84 91 93 93 91 85 79 74 70 71 69 65 59 51 46 40 35 31 29 28 26 26 26
53 53 55 60 65 72 71 72 74 74 78 87 92 90 88 83 80 74 71 68 55 50 46 37 32 29 29 27 26 26 26 25
60 61 67 74 82 86 87 77 70 74 81 85 85 84 86 84 74 66 59 55 53 47 35 32 31 30 29 28 29 27 26 25
67 75 80 84 88 78 75 69 66 67 70 71 75 78 75 69 63 58 54 47 37 35 34 33 31 31 31 31 30 29 29 28
70 81 86 81 72 67 68 61 61 64 66 67 66 66 63 58 52 44 39 37 37 37 37 35 34 34 32 31 30 28 28 29
81 82 76 62 58 57 57 59 58 57 53 53 52 52 49 46 44 44 44 43 43 43 41 40 40 37 36 36 31 27 27 30
67 54 51 55 58 56 57 54 50 50 52 51 49 47 47 48 47 47 47 47 47 46 43 38 35 30 28 29 26 25 26 22
54 53 55 53 50 52 51 52 51 50 49 48 48 49 47 47 48 48 48 47 44 38 35 31 31 28 26 28 30 30 34 28
56 58 55 56 56 52 51 53 54 53 54 55 54 51 50 48 48 46 42 38 35 33 29 29 30 32 33 33 31 38 40 34
61 56 60 58 59 57 58 57 57 55 57 57 54 51 46 42 39 34 29 27 27 26 27 28 38 41 42 42 41 44 48 48
52 57 61 64 67 69 66 62 58 58 57 52 47 43 37 32 26 24 24 27 34 42 41 48 43 42 43 40 40 50 53 59
56 59 63 64 65 65 63 59 58 52 43 38 35 29 26 23 24 27 33 40 44 47 55 48 50 46 47 49 49 50 48 57
57 59 63 63 62 62 58 58 54 46 41 35 29 26 23 20 20 27 36 41 45 52 52 61 48 49 48 51 48 49 50 48

GFSFLT2_prec_cthk_009.txt.gz
RH
94 88 93 87 77 53 33 25 13 15 19 22 26 29 29 30 30 31 35 37 38 40 41 43 42 40 37 33 34 37 37 44
87 94 82 64 46 35 25 17 14 19 25 27 29 29 31 32 34 35 40 42 44 44 46 45 43 49 48 43 36 39 38 44
77 72 67 60 66 26 14 15 18 24 31 32 36 50 46 48 42 41 42 44 46 47 48 49 51 56 51 46 41 40 37 39
53 48 45 49 44 22 27 27 37 42 46 41 54 49 49 46 52 49 53 52 52 57 57 59 59 57 54 48 44 39 38 37
35 31 35 38 36 36 38 37 40 45 46 50 56 56 60 64 64 73 77 77 74 68 67 69 62 54 49 46 42 37 36 35
25 30 33 37 37 41 42 50 52 55 57 56 62 65 64 68 74 78 86 88 81 78 78 69 61 55 47 45 38 35 33 31
34 37 35 40 46 49 53 59 63 65 70 75 80 78 76 78 83 78 81 85 85 83 77 68 60 51 46 42 36 33 33 31
41 42 45 50 55 57 60 61 65 72 74 79 78 81 78 76 76 79 84 87 86 78 68 61 54 49 43 40 37 37 37 34
44 48 53 56 65 70 73 71 71 70 69 73 77 79 78 81 83 81 85 78 67 56 51 49 48 47 45 43 38 35 34 34
50 57 63 67 71 78 79 65 58 60 61 63 66 68 70 67 65 70 62 53 49 47 48 48 47 47 44 38 36 34 35 38
65 68 65 70 82 73 59 54 57 59 58 59 51 49 49 47 48 47 45 47 48 48 46 45 43 41 38 41 40 33 37 37
70 71 77 84 76 60 52 55 53 50 48 46 41 43 42 46 50 48 49 52 51 50 47 46 43 45 42 44 35 35 32 34
75 79 81 77 65 58 54 50 44 42 43 42 44 46 49 51 54 55 56 54 53 50 49 52 46 40 41 45 42 37 36 35
81 82 75 64 58 58 56 49 47 44 45 47 53 56 57 58 57 57 57 53 50 49 52 50 43 40 40 42 37 32 30 33
75 66 59 54 55 50 45 45 47 52 55 56 58 57 57 54 52 52 51 50 46 43 44 48 41 38 37 38 37 38 36 36
66 59 55 51 49 47 49 53 56 58 59 58 59 59 53 48 45 44 46 45 43 41 47 48 41 43 41 40 40 40 38 35
61 55 50 47 46 48 51 55 61 63 60 59 56 47 41 37 34 34 35 39 42 43 50 49 45 44 43 42 38 44 44 41
55 51 49 49 50 52 55 60 61 66 63 61 52 43 39 33 34 35 34 38 44 51 50 45 49 49 53 50 41 43 41 46
51 51 51 52 54 56 56 59 68 68 63 50 42 40 35 34 36 37 39 42 47 41 39 43 55 58 59 46 44 49 52 57
51 51 51 53 55 56 57 65 74 72 50 46 41 36 34 35 39 42 46 44 41 44 54 54 57 62 48 47 52 53 60 62

GFSFLT2_prec_cthk_012.txt.gz
RH
93 94 87 90 77 66 50 36 17 11 15 20 23 26 28 28 28 30 33 37 39 41 40 42 44 51 48 42 38 33 31 43
98 91 98 82 72 52 40 25 11 14 18 24 28 30 31 32 32 33 37 43 47 49 44 44 51 55 50 47 45 38 34 37
97 91 81 71 62 42 23 13 12 18 26 33 37 40 43 43 43 41 45 47 51 56 60 59 57 57 54 51 49 44 37 36
73 77 69 54 48 25 15 18 23 32 33 41 44 48 51 52 54 50 59 60 68 75 73 69 65 63 58 51 46 42 37 37
39 39 39 43 33 21 23 30 33 37 40 50 55 50 59 62 62 70 72 75 83 80 78 77 72 64 57 50 44 41 38 35
33 34 38 36 33 36 39 42 46 47 49 58 64 62 62 63 68 72 76 78 80 81 78 76 71 65 58 50 45 41 39 38
28 27 31 35 40 44 47 50 57 60 70 78 76 72 70 69 71 75 76 75 76 79 76 71 67 57 46 45 46 47 43 39
35 33 37 44 48 53 59 64 64 70 62 64 64 67 71 74 73 72 72 70 72 74 68 56 49 47 45 44 45 42 40 38
36 38 45 48 54 62 68 71 59 57 54 55 62 69 68 66 61 56 52 45 58 57 48 43 42 41 40 38 37 37 37 35
45 48 54 61 63 71 78 65 54 56 55 53 50 50 49 46 40 38 38 40 41 43 44 43 41 40 40 37 41 39 37 30
61 61 63 66 67 77 70 58 55 55 47 41 40 37 36 36 39 41 43 44 47 47 46 44 39 37 38 39 39 40 35 33
64 62 63 69 78 68 58 50 50 44 38 37 37 36 38 41 43 43 45 49 50 49 46 44 47 49 43 37 37 39 35 34
63 68 70 74 78 59 49 49 44 37 37 37 39 42 44 45 47 49 48 45 42 38 38 42 42 41 39 36 34 33 33 33
72 71 71 70 61 54 54 51 41 39 39 42 44 45 47 51 51 46 42 39 35 36 38 37 38 42 39 35 34 34 34 33
72 75 70 61 50 48 48 42 42 46 47 47 49 50 55 56 47 41 37 33 33 34 37 40 42 42 40 38 36 36 36 33
71 71 61 53 50 46 46 46 47 48 50 55 54 55 52 45 36 33 31 29 30 34 40 41 40 39 37 34 34 36 36 34
69 62 53 51 48 48 47 46 48 48 53 58 58 58 50 40 37 33 30 28 29 35 41 42 39 35 33 33 34 40 41 40
58 53 51 49 48 46 45 47 48 48 53 58 61 49 42 36 35 32 30 32 36 41 40 37 36 38 36 44 47 45 47 42
50 50 48 49 47 46 46 49 50 52 57 54 53 51 41 35 35 33 31 39 40 37 36 36 35 40 43 45 46 42 42 39
50 48 48 47 46 46 48 53 57 57 56 52 54 54 42 36 36 33 40 43 40 32 35 41 41 44 50 53 53 42 50 49

GFSFLT2_prec_cthk_015.txt.gz
RH
99 98 93 92 88 78 60 44 26 18 18 19 22 25 27 27 28 30 34 36 39 40 47 51 53 52 49 45 42 39 37 34
96 96 98 81 81 69 48 35 24 17 18 24 29 29 29 30 32 33 36 39 45 51 56 60 60 61 56 53 50 47 41 36
87 79 89 88 67 54 37 18 13 15 23 28 33 36 37 38 39 42 47 54 54 61 67 66 65 66 60 54 50 47 40 37
62 65 71 65 58 37 18 14 18 24 32 35 38 42 47 49 52 57 60 66 66 68 71 71 68 69 62 59 53 49 44 38
64 63 47 42 33 16 18 22 27 32 37 46 53 56 54 54 55 63 70 69 69 71 71 70 70 69 63 58 51 48 43 43
49 41 40 34 28 28 30 32 35 39 49 58 58 54 59 58 62 67 64 63 64 65 66 70 70 67 59 48 43 41 41 40
37 37 38 39 39 42 41 45 50 58 59 62 65 62 61 64 64 62 62 66 62 61 61 66 66 54 41 39 38 37 36 34
32 39 41 42 44 45 47 59 68 62 52 49 50 56 58 58 60 62 58 50 45 42 43 41 37 38 38 35 34 32 32 33
31 36 38 43 45 49 56 59 54 49 46 45 45 48 51 50 48 46 36 31 30 33 36 38 38 35 35 33 34 37 38 38
37 40 45 49 52 57 64 63 50 49 45 43 41 40 40 36 33 32 32 35 37 38 39 38 37 37 33 35 35 36 36 36
49 52 56 57 55 58 62 56 48 46 45 36 34 33 32 33 35 39 41 42 42 42 42 40 34 31 35 37 33 33 34 32
54 53 53 56 61 66 63 50 45 43 35 31 32 35 37 40 44 45 46 45 42 39 35 30 29 31 33 32 31 31 32 30
53 54 55 54 56 54 46 43 39 36 34 34 36 39 42 44 48 49 45 38 35 32 30 30 30 30 30 32 31 28 27 26
57 58 58 57 60 56 47 41 42 39 37 40 42 45 47 48 51 49 38 33 31 30 30 29 30 32 33 33 30 25 24 25
63 65 61 64 64 56 51 48 45 41 40 43 46 49 49 48 50 41 31 29 29 29 29 31 33 35 34 32 31 30 27 27
60 60 62 63 61 56 54 52 45 42 43 44 46 45 45 46 44 40 32 28 27 26 29 32 33 34 35 35 33 34 32 30
69 64 61 59 55 51 51 49 46 45 46 47 46 49 47 45 48 45 37 33 31 31 35 37 37 37 37 37 38 36 34 36
62 61 60 57 49 49 47 46 46 46 48 48 52 54 49 46 43 41 35 33 34 38 40 38 37 38 37 36 37 38 40 40
59 58 59 53 51 50 49 48 48 48 50 54 58 58 49 40 44 43 35 35 39 42 37 32 34 36 37 37 39 45 48 47
53 54 48 51 49 48 51 50 49 52 56 61 61 54 51 47 50 46 37 41 47 47 40 38 37 40 40 36 45 57 52 46

GFSFLT2_prec_cthk_018.txt.gz
RH
98 99 97 93 90 82 69 53 33 20 20 23 28 29 27 27 28 32 34 35 37 41 46 54 55 54 56 54 51 46 42 37
93 93 89 84 79 75 54 36 20 19 26 28 29 27 27 29 33 38 38 40 47 51 54 56 59 58 60 61 53 52 46 42
91 90 87 86 77 62 50 34 26 27 30 30 30 34 39 39 38 40 45 50 54 57 59 59 61 60 62 61 58 53 48 43
79 79 68 66 61 48 30 22 24 32 36 37 40 43 44 44 45 47 49 55 58 57 58 56 57 59 59 61 60 49 42 41
69 69 60 54 42 25 21 26 33 37 38 45 47 46 49 50 52 56 59 56 56 57 59 55 53 50 54 54 47 41 36 33
56 48 44 39 28 19 25 29 39 43 50 51 52 52 56 53 55 57 57 58 58 59 52 49 48 50 44 35 31 31 29 29
35 35 33 31 28 31 36 48 52 56 55 52 54 52 53 52 51 52 55 55 54 44 38 38 38 37 32 33 32 30 30 31
39 39 39 38 41 43 52 58 61 55 52 48 44 44 46 44 49 52 48 42 34 29 31 31 31 32 32 31 27 28 31 33
40 40 42 44 45 49 57 65 61 51 47 43 37 38 39 43 42 38 32 27 28 31 32 32 32 31 32 32 29 30 31 31
42 43 45 49 50 54 61 61 55 50 45 41 34 34 33 31 31 28 30 34 35 34 34 32 34 34 31 29 29 30 29 30
41 43 45 50 56 61 60 61 54 43 40 33 30 28 27 28 30 33 35 38 39 37 36 36 34 29 28 30 32 31 31 30
46 46 50 53 55 54 52 49 40 36 35 31 27 27 29 32 34 36 39 43 39 33 32 30 27 28 29 30 31 32 31 29
50 54 56 56 55 51 53 45 39 38 35 31 29 30 34 36 38 41 44 45 36 31 29 29 29 27 29 33 34 33 31 29
53 57 59 58 56 52 53 45 44 40 36 32 32 34 38 43 44 45 46 46 40 38 35 35 30 30 34 36 36 32 27 27
57 62 61 60 57 56 55 47 45 42 39 37 38 41 45 48 46 44 42 43 40 36 33 31 32 34 37 39 38 34 32 33
59 65 63 59 58 57 58 49 46 45 43 42 44 48 48 49 51 48 41 35 37 38 35 31 34 40 43 42 41 39 38 35
58 59 62 61 59 61 57 50 49 48 48 47 50 51 51 52 54 51 46 44 40 39 37 38 42 45 45 43 41 41 44 43
65 56 63 63 65 61 55 53 53 52 55 56 58 59 60 60 57 54 55 58 55 46 45 44 44 44 43 44 44 49 50 46
57 57 61 65 60 61 60 61 60 59 60 63 63 62 63 65 64 60 58 64 51 56 56 54 50 49 50 50 51 55 52 50
58 57 58 61 63 64 67 68 62 63 66 66 65 66 68 66 77 76 58 55 50 56 55 56 56 52 49 52 56 56 60 60

GFSFLT2_prec_cthk_021.txt.gz
RH
98 99 99 96 84 72 67 65 59 42 35 33 29 29 29 30 32 33 33 38 41 42 46 52 53 53 53 51 48 47 45 42
94 98 96 92 84 77 74 59 37 29 32 31 32 34 33 33 33 38 40 41 40 45 52 56 52 50 52 52 55 53 46 42
94 93 90 91 87 81 57 35 24 30 36 35 34 35 37 39 40 41 39 41 46 50 49 50 48 45 45 46 49 46 41 37
90 87 83 82 77 65 52 39 36 39 44 45 44 43 40 41 41 43 44 50 52 49 52 50 41 38 39 41 37 32 31 30
71 70 69 64 55 38 28 27 37 39 39 43 43 45 47 50 49 48 53 52 52 52 51 42 38 39 39 36 32 29 28 26
58 60 59 45 34 29 32 35 38 41 44 48 51 49 48 49 53 52 53 51 50 48 43 38 41 40 38 32 30 29 25 26
45 43 39 38 30 32 36 45 52 58 55 51 51 48 47 48 48 46 49 47 44 40 35 35 34 33 33 32 29 26 24 25
37 36 34 32 36 44 46 58 61 59 57 53 51 41 43 42 43 43 45 40 35 32 34 33 34 33 32 30 28 25 24 25
34 35 35 39 44 46 56 61 64 61 53 51 46 43 41 42 42 39 34 30 32 35 36 36 34 34 33 31 25 25 24 24
43 45 46 48 49 53 60 62 64 57 49 47 41 39 39 35 31 30 31 34 35 35 35 34 32 31 28 27 28 27 27 27
43 43 45 48 51 56 61 70 62 51 45 41 38 35 30 27 28 31 33 35 34 35 35 32 29 28 29 29 28 28 29 31
46 46 50 54 56 58 62 53 48 46 41 38 36 29 28 29 31 33 35 35 36 38 40 35 33 33 32 31 30 32 35 34
46 50 53 55 59 60 58 54 53 47 43 39 33 31 31 32 34 38 38 36 34 36 37 37 35 34 32 33 34 36 38 36
45 53 56 59 61 60 60 59 57 50 45 41 36 35 35 36 38 40 41 44 43 39 35 39 40 39 38 37 40 41 42 41
44 52 57 62 61 63 63 63 59 50 46 43 41 41 41 43 45 47 48 47 47 47 50 47 48 44 44 45 45 47 49 49
55 57 61 66 63 63 62 64 73 48 47 44 45 46 49 50 50 50 52 56 60 54 50 56 49 52 54 55 55 57 57 53
58 60 69 68 64 64 61 63 70 54 51 50 50 52 55 56 55 54 55 59 58 64 67 61 56 52 53 50 52 54 56 55
66 70 69 71 62 62 61 65 65 68 64 62 61 61 60 59 58 57 64 74 83 69 61 56 57 59 57 53 57 60 59 60
63 63 65 66 58 54 63 65 69 72 71 73 70 68 66 67 62 66 73 91 74 59 58 60 60 60 62 60 59 59 62 59
61 59 72 64 66 63 64 73 72 80 80 79 76 73 71 70 65 86 93 76 59 63 59 61 66 65 68 64 62 58 55 58

GFSFLT2_prec_cthk_024.txt.gz
RH
92 98 99 95 80 66 59 52 53 54 53 50 47 44 39 34 38 33 37 40 41 43 48 50 51 50 46 43 43 43 39 36
89 93 98 92 82 72 66 62 58 59 49 42 39 41 40 36 34 38 40 43 43 47 49 51 47 41 37 38 40 39 36 32
90 97 95 90 83 74 70 65 59 42 42 40 41 38 39 44 44 45 45 43 46 52 50 45 42 33 34 34 33 30 26 25
90 96 94 92 89 85 79 61 39 42 43 41 42 45 47 46 45 45 44 47 51 49 45 42 32 31 32 34 33 29 27 26
97 92 97 93 88 70 54 48 48 48 48 49 46 44 42 45 49 49 52 51 49 47 42 37 33 33 33 32 28 26 25 25
58 58 61 61 58 52 40 37 40 43 40 46 50 49 48 47 47 52 50 46 46 43 37 37 37 34 31 29 29 27 24 21
49 42 36 33 33 29 30 33 39 46 50 52 49 48 48 50 47 45 44 46 43 36 36 35 33 31 31 30 28 25 21 22
41 40 37 37 34 33 39 52 55 57 59 55 51 46 44 44 43 43 42 43 36 34 33 33 33 31 28 27 25 22 22 22
40 42 45 40 39 43 56 61 64 60 61 54 50 42 42 42 41 39 39 37 34 35 34 33 31 29 27 24 24 25 25 24
46 48 45 42 45 50 54 59 61 66 56 50 45 43 42 40 38 36 36 35 33 35 35 35 35 32 28 27 28 28 29 28
46 43 39 40 47 51 60 62 63 57 50 46 43 43 41 38 35 33 34 36 37 37 34 32 31 30 31 33 34 32 30 30
46 48 51 52 52 52 58 58 56 55 51 48 46 42 39 35 34 35 36 38 39 37 36 31 30 34 38 37 37 37 35 35
46 51 51 54 53 54 63 62 66 59 51 50 48 43 39 35 36 37 38 39 40 41 40 41 48 48 46 45 47 47 49 46
43 48 51 56 58 58 62 63 62 59 57 49 49 43 38 37 39 39 41 43 44 46 54 57 60 58 66 61 53 51 50 50
39 48 54 57 58 59 62 62 62 64 62 50 46 41 41 43 45 47 47 48 50 56 64 72 75 64 61 58 55 55 55 57
45 51 56 62 63 61 61 59 62 65 68 58 53 53 52 52 56 56 59 61 60 70 74 84 79 67 61 55 55 58 57 57
49 55 59 64 66 66 65 64 67 67 70 67 61 64 63 63 64 62 66 69 70 76 88 91 82 61 59 57 62 63 60 61
55 66 67 64 74 78 67 62 65 69 71 75 73 74 75 75 72 73 77 75 78 82 78 71 65 62 56 59 68 61 63 60
61 68 68 62 82 80 73 64 64 71 72 79 81 83 81 79 79 79 81 83 79 81 78 72 60 56 70 70 62 60 59 57
60 61 63 65 80 85 75 73 74 72 81 82 88 85 82 81 82 81 79 79 74 79 71 60 68 75 64 61 63 61 60 65

GFSFLT2_prec_cthk_027.txt.gz
RH
85 86 92 97 87 71 59 56 61 50 46 51 57 52 45 44 41 41 37 37 40 45 49 51 50 40 34 33 33 32 27 27
89 94 96 89 82 69 62 62 55 50 55 59 52 47 45 42 37 36 38 43 45 49 53 49 45 31 31 31 30 27 23 21
96 99 92 79 76 67 64 59 57 63 60 50 46 50 44 39 39 44 45 44 50 52 47 44 34 28 29 29 27 26 24 23
94 88 88 85 81 71 67 71 74 65 51 47 48 47 46 49 47 45 46 51 51 46 44 37 30 29 29 29 27 25 25 22
92 91 90 93 89 83 85 81 62 50 48 47 46 50 49 45 46 48 52 50 45 45 37 33 31 32 31 29 26 25 24 21
90 93 91 92 90 88 71 57 52 53 50 50 49 47 47 49 48 48 48 46 46 38 33 32 31 29 27 27 24 22 21 19
68 73 74 76 82 66 56 46 46 47 47 49 54 51 47 48 47 45 44 45 40 32 31 29 29 29 28 28 26 24 22 22
48 54 60 59 50 41 33 34 41 49 53 55 51 50 45 45 44 42 42 38 33 32 29 31 31 31 30 29 28 25 23 22
40 39 40 39 35 35 38 49 54 57 59 60 62 47 44 42 43 38 36 36 31 30 33 31 29 28 28 26 25 26 27 28
46 46 45 49 46 43 47 55 60 65 61 53 50 45 42 42 39 37 36 32 32 34 34 33 32 29 27 28 30 32 33 33
52 51 50 46 44 44 55 59 67 66 60 50 48 45 45 43 39 34 32 33 35 37 37 37 33 33 35 38 39 41 44 41
46 47 46 43 41 47 53 58 58 61 57 51 48 48 46 44 36 33 32 37 38 40 41 40 40 43 48 49 51 49 44 41
48 51 50 49 49 51 56 56 55 62 59 57 51 50 47 42 38 35 39 42 44 47 46 46 50 60 65 64 63 55 51 47
50 53 53 56 58 59 63 64 66 74 64 57 50 48 45 43 41 45 47 50 53 56 56 57 63 68 73 73 68 63 57 52
42 48 55 57 61 61 60 64 76 69 66 64 58 55 53 54 57 59 59 58 57 58 63 70 75 80 77 73 62 59 51 51
38 43 51 60 62 64 60 61 66 67 67 66 67 60 57 58 61 63 63 62 62 65 77 85 84 80 73 65 57 54 55 60
48 46 51 58 60 65 64 62 65 69 74 67 69 74 68 64 66 67 69 73 76 77 84 93 86 81 64 58 55 57 63 62
63 58 58 61 61 68 72 68 69 63 67 68 73 75 83 75 77 79 82 79 81 80 81 81 81 74 58 58 63 68 60 55
65 63 61 68 68 59 73 77 79 82 81 75 78 78 87 88 87 88 86 83 85 84 75 78 74 62 64 70 67 58 53 48
65 64 63 62 64 70 75 75 82 85 87 88 88 87 91 91 91 86 81 85 92 90 79 79 68 68 71 64 60 56 57 58

GFSFLT2_prec_cthk_030.txt.gz
RH
89 87 89 88 72 69 59 53 51 53 57 54 49 51 51 45 46 47 46 41 40 44 50 50 43 32 32 28 27 23 29 30
87 89 91 93 82 68 62 53 56 60 58 53 54 57 49 50 50 47 42 41 49 52 50 43 33 29 28 27 24 24 28 28
92 94 99 84 83 81 72 63 60 62 61 62 62 55 51 52 46 42 43 50 52 54 48 41 29 28 27 26 26 27 28 28
92 96 97 93 91 91 66 67 66 64 66 68 60 57 58 50 44 49 49 53 56 49 43 30 29 29 28 26 27 25 25 26
96 92 93 93 83 75 76 74 68 72 74 62 61 57 52 54 51 52 53 59 53 46 33 30 30 29 27 26 28 27 26 26
90 96 88 84 81 84 82 80 82 75 62 59 58 54 52 50 52 52 58 52 45 37 31 29 28 29 28 27 25 25 24 25
93 90 87 89 93 92 88 81 72 60 58 57 55 51 49 50 54 57 49 45 40 32 30 29 29 27 26 24 23 21 22 24
89 91 90 88 87 80 70 63 56 53 54 51 50 52 52 49 51 47 45 40 34 31 32 32 28 25 23 24 23 23 26 28
65 69 67 65 64 53 43 44 49 50 55 57 59 57 52 45 44 43 39 35 31 30 32 29 30 27 27 28 30 32 36 37
55 62 72 70 61 47 40 46 51 55 58 64 64 60 47 44 42 39 36 34 30 31 32 34 35 36 37 39 40 42 43 44
47 47 50 54 48 40 42 48 56 63 70 67 62 52 45 43 39 37 35 32 30 32 33 38 40 45 49 47 49 53 51 48
51 52 51 51 51 50 51 55 69 72 69 63 52 47 46 45 41 39 36 33 32 37 40 45 49 51 54 55 58 57 56 54
54 56 56 53 52 49 52 61 61 64 62 59 52 49 48 47 42 42 38 39 45 46 50 52 53 58 64 65 61 64 62 52
55 56 58 59 56 51 53 57 62 60 64 63 57 52 51 48 47 52 52 53 53 55 54 56 60 65 73 76 79 71 58 57
49 53 58 59 58 57 60 62 63 66 73 69 73 62 55 54 55 56 56 59 60 61 58 58 68 73 80 87 79 65 59 54
41 44 51 55 58 64 61 59 63 68 77 79 73 67 65 60 60 62 60 62 63 63 67 74 80 79 74 74 68 66 63 57
47 48 50 53 60 60 64 69 69 67 66 78 74 71 72 76 76 70 66 66 68 73 75 82 88 77 75 71 64 64 61 62
56 56 61 62 63 64 68 76 78 77 73 72 69 74 80 82 82 85 75 76 78 82 82 90 91 87 79 70 66 67 65 62
62 67 71 72 70 69 73 69 76 83 82 85 88 90 89 89 88 90 89 90 89 84 82 95 91 84 76 70 73 70 68 66
66 65 71 72 68 70 72 71 76 80 78 86 94 93 92 92 91 94 93 91 88 80 94 93 85 76 73 81 76 72 73 73

GFSFLT2_prec_cthk_033.txt.gz
RH
81 82 86 77 70 62 57 61 54 49 53 53 57 52 51 52 51 44 44 47 51 48 46 39 31 28 27 25 22 24 32 33
94 92 89 83 75 67 65 53 55 54 61 62 58 54 53 54 48 47 48 47 47 51 49 37 27 28 26 23 24 26 27 32
88 93 92 88 80 73 59 56 61 67 68 66 61 60 64 60 54 51 44 46 54 53 46 30 28 27 25 24 26 26 28 31
92 94 91 88 83 78 75 72 75 78 75 68 71 69 66 65 60 49 45 52 58 49 37 30 31 30 28 29 26 26 26 28
89 92 86 93 82 84 88 86 90 78 78 76 78 70 72 65 58 46 54 58 54 46 32 34 29 30 29 24 24 26 26 28
92 98 94 89 93 94 94 96 86 79 78 80 73 73 72 67 61 57 59 58 49 42 30 28 28 26 23 22 22 23 25 30
96 93 96 92 94 98 96 90 81 79 80 76 71 74 71 68 64 60 60 54 45 32 29 32 29 27 26 27 26 27 29 31
98 99 98 99 97 91 87 82 81 83 76 69 69 68 63 63 59 57 54 45 39 33 33 32 32 30 29 32 33 37 34 33
97 97 95 89 84 87 85 82 81 73 66 60 62 63 60 61 56 51 47 42 37 34 32 33 34 33 35 39 42 41 40 42
71 68 71 65 66 72 76 69 68 62 71 63 60 64 61 53 50 46 43 37 36 34 35 37 38 40 44 45 45 47 47 47
64 68 66 71 69 64 59 50 52 62 67 68 69 70 59 48 46 43 39 37 37 36 38 40 42 46 48 48 49 50 50 47
61 74 77 74 68 56 52 52 55 70 77 75 73 66 51 45 49 40 40 40 36 38 44 47 50 50 47 48 52 54 56 56
48 48 56 64 68 59 56 53 61 80 80 79 67 55 49 48 49 45 42 40 49 52 52 52 55 51 56 61 61 59 58 59
54 54 54 58 55 58 55 56 61 67 72 75 66 58 52 49 54 50 52 53 56 55 55 59 59 59 67 70 72 65 59 55
58 59 61 63 65 63 55 53 62 66 62 68 68 66 67 60 57 56 59 58 56 56 61 63 62 67 74 78 74 72 67 62
47 53 56 58 61 61 59 63 63 67 69 73 76 78 77 74 73 65 62 63 62 65 65 65 65 74 83 82 83 80 72 67
42 47 49 55 54 56 60 64 66 70 68 67 70 75 78 77 77 78 84 86 78 71 67 67 70 83 91 92 85 80 74 71
42 48 49 54 60 64 62 68 71 76 80 81 77 76 76 81 83 91 95 92 88 87 77 73 80 95 94 92 87 78 77 79
51 53 54 58 62 69 67 68 77 77 77 78 82 81 82 88 93 95 96 95 91 91 92 93 94 94 96 91 82 84 85 77
65 65 68 69 74 70 77 69 76 79 73 75 76 85 90 97 88 91 92 93 90 95 93 95 95 98 96 84 89 85 79 76

GFSFLT2_prec_cthk_036.txt.gz
RH
94 91 92 91 82 76 66 54 50 50 55 55 53 53 52 53 53 53 55 51 53 52 41 30 25 23 23 25 26 27 31 29
91 95 92 86 81 72 60 52 52 57 63 56 55 62 56 56 56 57 51 54 58 47 35 28 26 24 24 24 23 24 25 24
92 91 93 89 84 70 63 64 69 65 59 59 66 66 59 59 61 58 55 61 56 46 34 29 28 26 24 24 23 24 24 23
94 96 95 88 88 75 76 81 69 63 63 70 74 71 65 65 65 63 63 62 54 47 32 30 32 29 26 23 21 23 22 21
90 94 91 88 82 83 89 74 75 74 76 77 79 74 74 70 69 65 61 63 59 41 32 33 32 28 23 19 21 22 24 25
92 87 86 85 87 93 83 77 83 79 82 83 81 80 76 71 67 62 66 67 58 38 33 32 27 24 21 20 20 23 29 30
86 86 88 87 91 92 79 84 88 88 83 86 84 78 74 71 70 65 67 64 52 39 32 30 27 24 25 26 28 32 35 34
87 89 91 88 93 82 88 94 94 94 86 83 80 79 74 71 73 66 64 58 50 35 33 31 32 28 27 29 36 41 38 39
91 93 93 98 97 98 97 97 93 88 83 81 80 74 68 66 59 60 61 52 46 36 34 34 31 31 32 37 42 44 43 44
86 87 89 94 94 92 91 90 84 85 81 76 64 58 58 56 54 57 52 46 43 37 34 34 34 35 40 45 45 44 47 50
71 70 71 68 68 64 68 68 67 70 64 59 57 56 57 56 58 53 48 44 40 38 35 36 38 46 49 48 46 50 54 54
53 56 52 54 58 63 62 57 60 61 61 65 68 62 66 57 54 50 46 44 42 38 39 43 48 51 53 51 54 61 62 60
48 48 51 58 66 55 58 50 50 51 65 77 71 77 63 54 54 52 49 46 44 48 47 49 52 56 56 59 64 66 67 64
45 49 51 56 56 48 46 44 43 45 59 70 80 92 57 53 53 52 51 55 58 55 54 53 54 60 61 67 70 72 71 69
42 45 45 48 52 46 49 50 46 45 54 55 65 82 64 58 61 61 60 59 56 55 59 58 61 63 65 68 72 80 78 69
41 41 40 43 49 53 57 52 50 53 57 58 61 67 73 73 78 80 78 76 74 70 74 70 68 68 72 75 79 90 91 83
39 43 45 48 49 54 61 59 53 57 66 70 69 66 65 70 77 84 84 81 80 80 91 93 87 81 84 83 89 95 94 86
38 40 44 47 54 55 61 62 62 67 75 73 74 77 77 82 86 87 88 92 95 96 95 95 93 89 88 92 93 97 92 85
44 43 48 52 55 56 65 69 70 71 75 75 74 82 76 76 75 82 87 94 95 92 94 97 95 91 90 95 97 96 92 89
52 53 53 56 58 60 62 72 70 81 81 83 78 80 65 65 77 82 81 83 86 86 87 90 90 94 97 98 96 93 88 88

GFSFLT2_prec_cthk_042.txt.gz
RH
75 76 74 91 98 75 60 49 50 49 50 49 49 48 50 52 54 55 50 50 47 42 38 39 36 29 26 26 25 20 17 16
80 84 87 96 93 80 72 66 57 54 49 48 48 53 54 55 60 56 55 60 49 37 35 35 34 27 25 25 22 20 17 17
80 99 97 95 98 84 75 68 61 50 46 50 54 59 59 60 61 62 65 60 45 41 37 32 28 26 25 22 20 18 20 20
82 86 98 98 97 88 76 66 59 49 57 60 58 60 62 62 63 65 67 67 55 44 40 33 26 26 23 20 20 19 22 25
82 83 87 94 91 82 68 64 64 68 63 64 61 63 64 61 61 65 71 67 59 51 45 36 29 25 19 19 20 23 28 29
84 85 86 88 86 80 72 73 70 66 63 61 65 67 64 64 64 69 73 70 66 51 39 31 30 25 21 21 25 29 34 33
83 84 85 87 83 80 68 72 73 67 63 65 67 68 67 68 70 71 70 71 70 50 37 37 31 26 22 24 27 31 37 35
78 86 86 93 84 75 76 82 71 76 70 66 71 71 69 70 72 71 66 70 67 50 38 33 32 26 25 25 28 34 39 39
77 76 86 86 81 80 87 84 77 81 73 73 75 74 71 72 73 68 67 70 65 51 32 33 30 28 28 29 33 41 43 44
87 89 94 82 83 84 85 82 81 82 78 77 77 73 71 74 69 74 65 64 58 47 39 32 30 29 29 32 38 45 47 49
88 91 92 88 88 88 86 82 82 81 82 79 78 74 74 71 70 62 53 55 51 46 40 33 31 30 33 37 41 45 49 54
71 73 77 81 82 80 80 75 74 72 75 77 69 70 71 65 53 46 46 48 46 42 41 38 36 36 38 41 44 50 55 57
58 62 63 61 63 64 65 64 61 61 62 62 61 62 61 53 41 40 41 44 45 43 45 47 44 42 43 44 47 52 58 62
47 48 51 53 51 53 55 53 51 55 58 59 57 63 60 61 54 40 45 47 49 50 51 52 52 52 52 53 54 52 57 65
35 37 37 39 40 43 45 46 46 49 48 49 57 64 63 64 60 57 52 53 55 61 65 68 69 71 70 72 72 71 72 74
30 34 36 33 36 40 43 41 38 41 41 43 51 54 60 64 67 67 72 68 69 75 78 80 83 85 87 92 81 79 78 77
28 33 38 36 35 38 39 38 44 42 43 47 49 53 58 61 64 74 77 76 79 85 86 81 78 81 89 90 84 80 72 75
33 33 38 43 43 41 42 42 45 47 45 44 45 48 55 65 70 75 83 86 84 79 89 83 85 75 73 72 69 65 56 63
35 37 38 41 44 46 46 45 46 50 54 57 58 55 59 73 84 93 92 89 83 81 84 83 79 72 65 61 63 63 65 68
37 38 40 40 40 41 44 49 52 54 62 67 74 75 76 86 94 94 89 89 84 85 86 80 72 66 61 63 68 66 62 69

GFSFLT2_prec_cthk_045.txt.gz
RH
79 87 85 88 88 97 88 67 55 63 52 49 52 50 50 50 47 48 48 49 48 47 42 37 34 33 32 27 22 20 15 12
84 95 98 87 81 92 90 69 60 60 49 54 55 53 53 52 49 50 49 49 51 49 45 38 35 31 30 24 22 19 15 14
90 87 86 87 93 91 87 76 62 61 56 56 57 56 54 55 52 54 52 51 53 54 39 35 33 33 27 22 20 18 18 19
85 80 95 97 95 92 90 70 65 70 63 62 58 55 55 56 57 57 56 55 56 49 44 40 36 31 23 20 18 19 22 23
85 84 89 96 97 94 95 91 92 78 64 61 58 60 57 59 58 61 59 58 56 46 44 38 36 29 21 20 20 23 26 27
87 89 87 91 91 93 93 93 88 73 69 60 63 62 60 55 58 67 64 62 55 50 45 36 33 27 22 21 22 26 31 30
82 85 88 92 93 89 87 86 84 82 63 62 63 59 57 57 62 69 70 69 63 54 48 41 31 26 21 24 26 25 30 33
81 89 89 89 88 77 74 72 80 74 65 66 60 59 58 62 65 71 71 70 68 58 47 36 28 30 32 25 24 26 31 36
85 87 97 95 93 89 79 70 81 71 67 67 66 65 65 69 69 71 68 68 71 63 41 36 35 32 29 25 27 30 37 40
82 80 88 91 89 90 84 83 81 77 73 72 68 70 73 72 72 72 68 66 68 60 46 37 34 35 28 27 29 35 38 41
93 86 93 96 98 89 89 83 82 81 81 77 73 73 74 75 74 74 70 65 63 57 44 38 37 32 30 31 35 38 40 45
90 91 91 95 98 90 88 87 88 84 80 78 77 79 74 75 71 69 71 57 52 50 46 44 39 37 39 38 40 41 42 45
60 68 83 91 90 89 90 87 85 77 74 77 81 77 71 70 70 67 55 48 45 47 45 46 46 47 48 47 45 45 47 51
50 56 59 65 69 73 74 76 72 70 71 74 76 69 64 61 59 51 45 41 44 50 52 54 57 57 57 56 54 56 60 65
41 43 50 55 61 65 66 66 63 63 65 67 65 62 60 62 62 53 47 45 48 54 56 61 64 66 66 68 71 74 75 76
34 35 37 43 50 52 54 57 57 61 60 57 60 62 63 67 67 64 55 59 57 61 66 72 77 75 76 75 73 80 78 72
27 31 32 36 41 43 44 46 45 48 49 50 52 56 63 67 65 60 63 71 67 68 77 86 92 90 88 77 72 66 63 58
26 28 32 35 36 38 39 40 42 45 47 48 49 51 54 54 57 59 73 78 78 81 89 90 91 93 90 84 70 60 59 58
29 31 33 37 39 37 39 41 45 49 51 53 53 52 53 59 63 68 68 79 86 88 92 91 89 86 80 74 65 67 65 68
32 32 32 37 41 43 44 44 46 52 52 59 62 63 63 61 63 67 72 84 92 91 98 95 91 90 86 72 65 71 70 68

GFSFLT2_prec_cthk_048.txt.gz
RH
81 85 82 83 83 79 87 79 72 57 46 51 47 46 46 49 51 50 50 50 50 46 45 42 39 34 29 27 21 17 17 16
90 93 87 86 91 88 86 86 82 61 52 49 49 52 53 55 55 54 53 52 49 47 53 44 38 31 31 23 23 18 16 18
91 91 91 95 91 92 90 90 86 68 52 54 59 58 57 59 57 55 54 51 49 49 50 47 40 39 33 30 21 19 21 20
90 96 94 93 93 92 90 87 83 77 62 63 60 59 61 62 57 53 50 52 54 54 58 45 38 33 33 26 22 22 23 23
92 86 91 96 96 98 94 93 95 84 70 62 65 67 64 63 54 52 53 51 53 57 51 41 35 35 31 28 26 25 27 27
87 91 91 95 98 98 92 90 92 86 79 72 74 69 64 61 57 58 55 57 55 55 47 42 39 34 28 25 27 28 30 30
88 92 92 95 98 98 96 96 97 91 85 79 82 73 66 64 64 62 59 61 62 56 50 44 37 36 33 27 26 27 31 35
84 90 94 96 96 95 94 94 92 87 86 78 77 70 67 66 69 67 66 67 64 60 52 46 36 33 29 28 26 30 33 33
85 92 96 95 95 94 94 92 92 93 90 77 76 72 67 67 71 70 71 71 70 62 54 51 42 36 31 29 36 36 31 37
84 91 98 97 94 98 96 89 93 90 86 77 75 73 72 70 71 71 73 73 70 69 62 49 39 36 33 38 33 30 35 43
99 93 91 96 97 92 87 87 92 89 87 76 76 77 75 74 74 74 74 74 71 74 64 48 38 40 40 40 31 33 37 40
95 91 95 95 94 94 90 89 87 87 86 80 80 80 78 78 78 78 77 78 74 70 60 52 46 41 45 37 36 38 39 41
75 92 91 98 97 99 92 88 88 86 85 88 86 85 81 82 81 78 78 77 74 65 61 55 51 48 46 45 44 43 43 44
54 66 79 92 97 99 97 89 90 90 92 94 90 88 85 83 81 81 80 78 66 52 52 57 56 57 55 55 54 57 56 58
42 50 59 69 80 85 87 89 86 79 86 85 81 83 80 79 86 73 75 66 59 50 49 55 58 57 60 63 59 62 58 65
36 38 48 56 60 68 66 69 67 68 74 71 72 73 73 74 70 62 57 54 52 47 51 57 60 63 66 70 73 70 67 61
29 34 36 42 46 48 50 54 58 61 62 60 63 65 66 66 63 59 59 59 56 55 57 62 65 69 76 81 84 89 80 70
27 31 33 37 40 42 45 45 46 51 50 52 56 60 64 62 61 65 63 63 58 63 69 71 80 88 90 94 92 92 84 71
30 31 34 38 40 42 43 44 47 48 49 48 50 52 51 52 56 57 59 62 63 69 79 89 89 94 97 97 95 91 87 76
30 29 31 36 41 42 43 46 47 52 50 51 55 59 55 57 56 55 61 66 70 76 75 86 99 99 98 95 93 94 81 82